Regional Weather Roundup
Issued by NWS

Home | Current Version | Previous Version | Text Only | Print | Product List | Glossary On
Versions: 1 2 3 4 5 6 7 8 9 10 11 12 13 14 15 16 17 18 19 20 21 22 23 24 25 26 27 28 29 30 31 32 33 34 35 36 37 38 39 40 41 42 43 44 45 46 47 48 49 50
000
ASUS45 KREV 231110
RWRNV
NEVADA REGIONAL WEATHER ROUNDUP
NATIONAL WEATHER SERVICE RENO NV
400 AM PDT SAT MAY 23 2015

NOTE: "FAIR" INDICATES FEW OR NO CLOUDS BELOW 12,000 FEET WITH NO
SIGNIFICANT WEATHER AND/OR OBSTRUCTIONS TO VISIBILITY.

NVZ001-003-004-231200-
WESTERN NEVADA

CITY           SKY/WX    TMP DP  RH WIND       PRES   REMARKS
RENO           CLOUDY    52  49  89 CALM      30.03S
CARSON CITY    CLOUDY    48  46  93 CALM      30.04S
MINDEN         MOCLDY    45  45 100 E3        30.05
SLIDE MTN        N/A     32  32 100 NW13        N/A
PYRAMID LAKE     N/A     57 N/A N/A SW2         N/A
FALLON         LGT RAIN  53  47  79 SW8       29.98S
LOVELOCK       CLOUDY    50  48  93 SE3       29.97R
HAWTHORNE      CLOUDY    54  48  82 CALM      30.01S
$$

NVZ002-CAZ072-073-231200-
NORTHERN AND CENTRAL SIERRA

CITY           SKY/WX    TMP DP  RH WIND       PRES   REMARKS
S. LAKE TAHOE  CLOUDY    46  41  82 CALM      30.07F
TRUCKEE        LGT RAIN  43  43 100 CALM      30.08F
SQUAW VLY 8000   N/A     37  36  93 NW7         N/A
BLUE CANYON    CLOUDY    46  43  89 SE3       30.10S FOG
MAMMOTH LAKES  CLOUDY    39  37  93 W8        30.09S
BRIDGEPORT     CLOUDY    42  38  85 N3        30.05F
$$

NVZ030-031-036-231200-
NORTHERN NEVADA

CITY           SKY/WX    TMP DP  RH WIND       PRES   REMARKS
ELKO           LGT RAIN  48  45  89 S3        29.95F
WINNEMUCCA     LGT RAIN  49  48  97 CALM        N/A
WENDOVER       CLOUDY    54  45  71 W9        29.90S
$$

NVZ035-037-231200-
CENTRAL NEVADA

CITY           SKY/WX    TMP DP  RH WIND       PRES   REMARKS
ELY            CLOUDY    45  39  79 CALM      29.97F
EUREKA           N/A     46  42  86 CALM      29.98F
$$

NVZ013-014-231200-
SOUTH CENTRAL NEVADA

CITY           SKY/WX    TMP DP  RH WIND       PRES   REMARKS
TONOPAH        CLOUDY    48  41  76 N6        30.00R
$$

NVZ017-020-022-231200-
SOUTHERN NEVADA

CITY           SKY/WX    TMP DP  RH WIND       PRES   REMARKS
LAS VEGAS      PTCLDY    60  42  51 S8        29.87S
N. LAS VEGAS   PTCLDY    59  38  45 NW6       29.90S
NELLIS AFB     PTCLDY    61  44  52 S8        29.90S
HENDERSON      CLEAR     57  43  59 S9        29.93F
MERCURY        PTCLDY    54  43  66 N3        29.93F
$$



USA.gov is the U.S. government's official web portal to all federal, state and local government web resources and services.